Tracking 29892 objects as of 21-Nov-2024
HD Live streaming from Space Station
objects crossing your sky now

CZ-6A DEB

Track CZ-6A DEB now!
10-day predictions


NORAD ID: 54516
Int'l Code: 2022-151JU
Perigee: 664.1 km
Apogee: 861.3 km
Inclination: 98.6 °
Period: 99.9 minutes
Semi major axis: 7133 km
RCS: Unknown
Launch date: November 11, 2022
Source: People's Republic of China (PRC)
Launch site: Taiyaun Space Center, China (TSC)

Note: This is SATELLITE DEBRIS
Your satellite tracking list
Your tracking list is empty




NASA's NSSDC Master Catalog

Two Line Element Set (TLE):
1 54516U 22151JU  24324.99849917  .00002393  00000-0  68025-3 0  9994
2 54516  98.5948 342.3246 0138199 264.1556  94.3865 14.40892464106015
Source of the keplerian elements: AFSPC